GW7213 Weather Reports


time (UTC)temp
F
wind
direction
speed
knots
gust
knots
rain 1hr
in
rain 24hr
in
rain mn
in
humidity
%
barometer
mb
20260503222827 69 0.0 0.0 0.00 0.00 0.00 27 1013.2
20260503222327 69 0.0 0.0 0.00 0.00 0.00 27 1013.2
20260503221827 69 0.0 0.0 0.00 0.00 0.00 27 1013.2
20260503221327 69 0.0 0.0 0.00 0.00 0.00 27 1013.2
20260503220828 69 0.0 0.0 0.00 0.00 0.00 27 1013.2
20260503220328 69 0.0 0.0 0.00 0.00 0.00 27 1013.2
20260503215828 69 0.0 0.0 0.00 0.00 0.00 27 1013.2
20260503215327 69 0.0 0.0 0.00 0.00 0.00 27 1013.2
20260503214826 69 0.0 0.0 0.00 0.00 0.00 27 1013.2
20260503214327 69 0.0 0.0 0.00 0.00 0.00 27 1013.2
20260503213827 69 0.0 0.0 0.00 0.00 0.00 27 1013.2
20260503213327 69 0.0 0.0 0.00 0.00 0.00 27 1013.2
20260503212827 68 0.0 0.0 0.00 0.00 0.00 29 1014.3
20260503212327 68 0.0 0.0 0.00 0.00 0.00 29 1014.3
20260503211828 68 0.0 0.0 0.00 0.00 0.00 29 1014.3
20260503211327 68 0.0 0.0 0.00 0.00 0.00 29 1014.3
20260503210828 68 0.0 0.0 0.00 0.00 0.00 29 1014.3
20260503210328 68 0.0 0.0 0.00 0.00 0.00 29 1014.3
20260503205826 68 0.0 0.0 0.00 0.00 0.00 29 1014.3
20260503205327 68 0.0 0.0 0.00 0.00 0.00 29 1014.3
20260503204826 68 0.0 0.0 0.00 0.00 0.00 29 1014.3
20260503204327 68 0.0 0.0 0.00 0.00 0.00 29 1014.3
20260503203827 68 0.0 0.0 0.00 0.00 0.00 29 1014.3
20260503203327 68 0.0 0.0 0.00 0.00 0.00 29 1014.3
20260503202828 71 0.0 0.0 0.00 0.00 0.00 26 1015.0
20260503202327 71 0.0 0.0 0.00 0.00 0.00 26 1015.0
20260503201827 71 0.0 0.0 0.00 0.00 0.00 26 1015.0
20260503201327 71 0.0 0.0 0.00 0.00 0.00 26 1015.0
20260503200827 71 0.0 0.0 0.00 0.00 0.00 26 1015.0
20260503200327 71 0.0 0.0 0.00 0.00 0.00 26 1015.0
20260503195826 71 0.0 0.0 0.00 0.00 0.00 26 1015.0
20260503195327 71 0.0 0.0 0.00 0.00 0.00 26 1015.0
20260503194827 71 0.0 0.0 0.00 0.00 0.00 26 1015.0
20260503194327 71 0.0 0.0 0.00 0.00 0.00 26 1015.0
20260503193827 71 0.0 0.0 0.00 0.00 0.00 26 1015.0
20260503193327 71 0.0 0.0 0.00 0.00 0.00 26 1015.0
20260503192827 71 0.0 0.0 0.00 0.00 0.00 26 1015.6
20260503192328 71 0.0 0.0 0.00 0.00 0.00 26 1015.6
20260503191827 71 0.0 0.0 0.00 0.00 0.00 26 1015.6
20260503191327 71 0.0 0.0 0.00 0.00 0.00 26 1015.6
20260503190828 71 0.0 0.0 0.00 0.00 0.00 26 1015.6
20260503190328 71 0.0 0.0 0.00 0.00 0.00 26 1015.6
20260503185827 71 0.0 0.0 0.00 0.00 0.00 26 1015.6
20260503185327 71 0.0 0.0 0.00 0.00 0.00 26 1015.6
20260503184827 71 0.0 0.0 0.00 0.00 0.00 26 1015.6
20260503184328 71 0.0 0.0 0.00 0.00 0.00 26 1015.6
20260503183828 71 0.0 0.0 0.00 0.00 0.00 26 1015.6
20260503183328 71 0.0 0.0 0.00 0.00 0.00 26 1015.6
20260503175121 71 0.0 0.0 0.00 0.00 0.00 27 1015.6
20260503174621 71 0.0 0.0 0.00 0.00 0.00 27 1015.6
20260503174121 71 0.0 0.0 0.00 0.00 0.00 27 1015.6
20260503173621 71 0.0 0.0 0.00 0.00 0.00 27 1015.6
20260503173122 71 0.0 0.0 0.00 0.00 0.00 27 1015.6
20260503172621 70 0.0 0.0 0.00 0.00 0.00 26 1016.2
20260503172040 67 0.0 0.0 0.00 0.00 0.00 27 1017.2
20260503171541 67 0.0 0.0 0.00 0.00 0.00 27 1017.2
20260503171040 67 0.0 0.0 0.00 0.00 0.00 27 1017.2
20260503170540 67 0.0 0.0 0.00 0.00 0.00 27 1017.2
20260503150540 51 0.0 0.0 0.00 0.00 0.00 43 1018.8
20260503131040 41 0.0 0.0 0.00 0.00 0.00 67 1019.5
20260503130540 41 0.0 0.0 0.00 0.00 0.00 67 1019.5
20260503110540 34 0.0 0.0 0.00 0.00 0.00 86 1019.4
20260503081540 38 0.0 0.0 0.00 0.00 0.00 77 1019.1
20260503081039 38 0.0 0.0 0.00 0.00 0.00 77 1019.1
20260503080540 38 0.0 0.0 0.00 0.00 0.00 77 1019.1
20260503072539 40 0.0 0.0 0.00 0.00 0.00 73 1019.1
20260503072040 40 0.0 0.0 0.00 0.00 0.00 73 1019.1
20260503071540 40 0.0 0.0 0.00 0.00 0.00 73 1019.1
20260503071039 40 0.0 0.0 0.00 0.00 0.00 73 1019.1
20260503070539 40 0.0 0.0 0.00 0.00 0.00 73 1019.1
20260503055041 40 0.0 0.0 0.00 0.00 0.00 71 1019.3
20260503054539 40 0.0 0.0 0.00 0.00 0.00 71 1019.3
20260503054039 40 0.0 0.0 0.00 0.00 0.00 69 1019.5
20260503053539 40 0.0 0.0 0.00 0.00 0.00 69 1019.5
20260503053039 40 0.0 0.0 0.00 0.00 0.00 69 1019.5
20260503052540 40 0.0 0.0 0.00 0.00 0.00 69 1019.5
20260503052039 40 0.0 0.0 0.00 0.00 0.00 69 1019.5
20260503051539 40 0.0 0.0 0.00 0.00 0.00 69 1019.5
20260503051039 40 0.0 0.0 0.00 0.00 0.00 69 1019.5
20260503050539 40 0.0 0.0 0.00 0.00 0.00 69 1019.5
20260503050040 40 0.0 0.0 0.00 0.00 0.00 69 1019.5
20260503045539 40 0.0 0.0 0.00 0.00 0.00 69 1019.5
20260503045039 40 0.0 0.0 0.00 0.00 0.00 69 1019.5
20260503044539 40 0.0 0.0 0.00 0.00 0.00 69 1019.5
20260503044040 41 0.0 0.0 0.00 0.00 0.00 66 1019.6
20260503043540 41 0.0 0.0 0.00 0.00 0.00 66 1019.6
20260503043039 41 0.0 0.0 0.00 0.00 0.00 66 1019.6
20260503042540 41 0.0 0.0 0.00 0.00 0.00 66 1019.6
20260503042039 41 0.0 0.0 0.00 0.00 0.00 66 1019.6
20260503041539 41 0.0 0.0 0.00 0.00 0.00 66 1019.6
20260503041040 41 0.0 0.0 0.00 0.00 0.00 66 1019.6
20260503040540 41 0.0 0.0 0.00 0.00 0.00 66 1019.6
20260503040039 41 0.0 0.0 0.00 0.00 0.00 66 1019.6
20260503035540 41 0.0 0.0 0.00 0.00 0.00 66 1019.6
20260503035040 41 0.0 0.0 0.00 0.00 0.00 66 1019.6
20260503034540 41 0.0 0.0 0.00 0.00 0.00 66 1019.6
20260503034039 41 0.0 0.0 0.00 0.00 0.00 62 1019.5
20260503033539 41 0.0 0.0 0.00 0.00 0.00 62 1019.5
20260503033039 41 0.0 0.0 0.00 0.00 0.00 62 1019.5
20260503032540 41 0.0 0.0 0.00 0.00 0.00 62 1019.5
20260503032040 41 0.0 0.0 0.00 0.00 0.00 62 1019.5
20260503031539 41 0.0 0.0 0.00 0.00 0.00 62 1019.5
20260503031039 41 0.0 0.0 0.00 0.00 0.00 62 1019.5
20260503030540 41 0.0 0.0 0.00 0.00 0.00 62 1019.5
20260503030039 41 0.0 0.0 0.00 0.00 0.00 62 1019.5
20260503025539 41 0.0 0.0 0.00 0.00 0.00 62 1019.5
20260503025039 41 0.0 0.0 0.00 0.00 0.00 62 1019.5
20260503024539 41 0.0 0.0 0.00 0.00 0.00 62 1019.5
20260503024040 42 0.0 0.0 0.00 0.00 0.00 56 1019.3
20260503023540 42 0.0 0.0 0.00 0.00 0.00 56 1019.3
20260503023039 42 0.0 0.0 0.00 0.00 0.00 56 1019.3
20260503022540 42 0.0 0.0 0.00 0.00 0.00 56 1019.3
20260503022039 42 0.0 0.0 0.00 0.00 0.00 56 1019.3
20260503021541 42 0.0 0.0 0.00 0.00 0.00 56 1019.3
20260503021039 42 0.0 0.0 0.00 0.00 0.00 56 1019.3
20260503020540 42 0.0 0.0 0.00 0.00 0.00 56 1019.3
20260503020040 42 0.0 0.0 0.00 0.00 0.00 56 1019.3
20260503015539 42 0.0 0.0 0.00 0.00 0.00 56 1019.3
20260503015039 42 0.0 0.0 0.00 0.00 0.00 56 1019.3